[[{"header":{"parameterUnit":"m.s-1","parameterCategory":1,"la1":30.2991,"la2":30.254,"lo1":-89.0895,"lo2":-89.0444,"dy":0.0017,"dx":0.0017,"nx":28,"ny":28,"refTime":"2025-07-26T21:00:00:Z","depth":0,"parameterNumber":2,"parameterNumberName":"U-component_of_WINDS"},"data":[0,0,0,0,0,0,0,0,0,0,0,0,0,0,0,0,0,0,0,0,0,0,0,0,0,0,0,0,0,0,0,0,0,0,0,0,0,0,0,0,0,0,0,0,0,0,0,0,0,0,0,0,0,0,0,0,0,0,-0.8373,-0.8373,0,-0.8371,-0.8371,-0.8371,-0.8349,-0.8348,-0.8348,-0.8347,-0.8346,-0.8347,-0.8347,0,0,0,0,0,0,0,0,0,0,0,0,0,-0.836,-0.836,-0.8373,-0.8373,-0.8373,-0.8371,-0.8371,-0.8371,-0.8349,-0.8348,-0.8347,-0.8347,-0.8346,-0.8347,-0.8347,0,0,0,0,0,0,0,0,0,0,0,0,0,-0.8362,-0.836,-0.8373,-0.8362,-0.8361,-0.8371,-0.8371,-0.8371,-0.8349,-0.8348,-0.8347,-0.8346,-0.8346,-0.8347,-0.8347,-0.8369,0,0,-0.835,-0.835,0,0,0,0,0,0,0,0,-0.8362,-0.8363,-0.8363,-0.8362,-0.8361,-0.8359,-0.8366,-0.837,-0.8349,-0.8353,-0.8347,-0.8346,-0.8351,-0.8352,-0.8353,-0.8369,-0.8369,-0.835,-0.835,-0.8351,-0.8351,0,0,0,0,0,0,0,-0.8362,-0.8363,-0.8372,-0.8363,-0.8362,-0.8357,-0.8357,-0.8367,-0.8357,-0.8353,-0.8351,-0.8351,-0.8351,-0.8352,-0.8353,-0.8369,-0.835,-0.835,-0.8351,-0.8351,-0.8404,-0.8405,0,0,0,0,0,0,-0.8363,-0.8363,-0.8372,-0.8372,-0.836,-0.8358,-0.8358,-0.8361,-0.8357,-0.8356,-0.8352,-0.835,-0.8352,-0.8352,-0.8353,-0.8378,-0.8351,-0.8351,-0.8352,-0.8403,-0.8404,-0.8405,0,0,0,0,0,0,-0.8363,-0.8364,-0.8373,-0.8367,-0.8368,-0.8359,-0.8363,-0.8361,-0.8363,-0.8356,-0.8355,-0.8356,-0.8351,-0.8352,-0.8365,-0.8378,-0.8352,-0.8352,-0.8402,-0.8403,-0.8405,-0.843,0,0,0,0,0,0,-0.8363,-0.8364,-0.8372,-0.8367,-0.8368,-0.8384,-0.8364,-0.8362,-0.8364,-0.8362,-0.8359,-0.8358,-0.835,-0.8364,-0.8366,-0.8379,-0.8353,-0.8401,-0.8402,-0.8404,-0.8428,-0.8432,-0.8435,0,0,0,0,0,-0.8362,-0.8379,-0.8372,-0.8374,-0.8377,-0.8385,-0.8386,-0.8376,-0.8365,-0.8373,-0.8369,-0.8358,-0.8377,-0.8366,-0.8368,-0.8381,-0.84,-0.8402,-0.8404,-0.8426,-0.8431,-0.8435,0,0,0,0,0,0,-0.8385,-0.8378,-0.8371,-0.8386,-0.8387,-0.8381,-0.8391,-0.8382,-0.8385,-0.8383,-0.8372,-0.8371,-0.8387,-0.8385,-0.8373,-0.8402,-0.8386,-0.8389,-0.8402,-0.8407,-0.8411,-0.8411,-0.8353,0,0,0,0,0,-0.8392,-0.8399,-0.8392,-0.8407,-0.8407,-0.8399,-0.8402,-0.8395,-0.8395,-0.8395,-0.8392,-0.8393,-0.8399,-0.8403,-0.8408,-0.8428,-0.8427,-0.8438,-0.8441,-0.8445,-0.8447,-0.8458,-0.8463,-0.8412,-0.8412,-0.8412,0,0,-0.8407,-0.8404,-0.8408,-0.8412,-0.8411,-0.8418,-0.84,-0.8408,-0.8414,-0.8397,-0.8409,-0.8407,-0.8407,-0.8424,-0.8431,-0.8423,-0.8461,-0.8447,-0.845,-0.845,-0.8461,-0.8465,-0.847,-0.8414,-0.8413,-0.8413,0,0,-0.8437,-0.8435,-0.8447,-0.8447,-0.8446,-0.8441,-0.8444,-0.844,-0.8438,-0.8451,-0.8438,-0.8445,-0.8456,-0.8456,-0.8458,-0.849,-0.848,-0.8492,-0.8512,-0.8523,-0.8527,-0.853,-0.8542,-0.8546,-0.8495,-0.8495,-0.8495,0,-0.8454,-0.8465,-0.8454,-0.8464,-0.8466,-0.8451,-0.8464,-0.8464,-0.8465,-0.8468,-0.8459,-0.8472,-0.8471,-0.8488,-0.8496,-0.8498,-0.8502,-0.8492,-0.8527,-0.853,-0.8533,-0.8544,-0.8549,-0.8496,-0.8496,-0.8496,-0.8496,0,-0.8487,-0.8495,-0.8505,-0.8506,-0.8509,-0.8521,-0.8513,-0.8518,-0.8511,-0.8507,-0.852,-0.8519,-0.8524,-0.8527,-0.8521,-0.8544,-0.8539,-0.8529,-0.8513,-0.854,-0.855,-0.8554,-0.8498,-0.8498,-0.8497,-0.8497,0,0,-0.853,-0.8527,-0.853,-0.8531,-0.853,-0.8536,-0.8547,-0.8551,-0.8556,-0.8558,-0.8567,-0.8577,-0.8568,-0.857,-0.8563,-0.8573,-0.8599,-0.8562,-0.8561,-0.8569,-0.8625,-0.8633,-0.8638,-0.8593,-0.8594,-0.8594,-0.8625,0,-0.8559,-0.8577,-0.8569,-0.8588,-0.8595,-0.8582,-0.8591,-0.8592,-0.8589,-0.8595,-0.8592,-0.86,-0.8587,-0.8588,-0.8597,-0.8594,-0.861,-0.8592,-0.8602,-0.8602,-0.8602,-0.8643,-0.8651,-0.868,-0.8629,-0.863,-0.863,0,-0.8595,-0.8598,-0.8618,-0.8616,-0.8619,-0.8627,-0.8632,-0.8638,-0.8639,-0.8636,-0.8639,-0.8631,-0.8642,-0.8627,-0.8643,-0.8631,-0.8635,-0.8634,-0.8635,-0.8635,-0.8618,-0.8645,-0.869,-0.8694,-0.8637,-0.8636,-0.8636,0,-0.8625,-0.8634,-0.8647,-0.8648,-0.8646,-0.8653,-0.8653,-0.8653,-0.8656,-0.866,-0.8663,-0.8668,-0.8671,-0.8676,-0.867,-0.8659,-0.8688,-0.8671,-0.8686,-0.8686,-0.8692,-0.8692,-0.8738,-0.8695,-0.8695,-0.8695,-0.8695,0,-0.8658,-0.867,-0.8661,-0.8669,-0.8683,-0.8674,-0.8688,-0.8687,-0.8687,-0.8695,-0.8684,-0.8692,-0.8684,-0.8691,-0.8687,-0.8701,-0.8703,-0.8701,-0.87,-0.8702,-0.8702,-0.8704,-0.8702,-0.8696,-0.8696,-0.8696,-0.8695,0,-0.8693,-0.8687,-0.87,-0.8698,-0.8697,-0.8708,-0.8706,-0.8714,-0.8711,-0.8721,-0.8723,-0.8718,-0.8726,-0.8721,-0.8729,-0.8726,-0.8746,-0.8741,-0.8745,-0.8744,-0.8759,-0.8758,-0.8808,-0.8814,-0.8767,-0.8768,-0.8768,0,-0.8714,-0.8723,-0.8722,-0.8726,-0.8727,-0.8734,-0.8738,-0.873,-0.8734,-0.8737,-0.8745,-0.8752,-0.8758,-0.8772,-0.877,-0.8776,-0.8772,-0.879,-0.8773,-0.8775,-0.8773,-0.8772,-0.8773,-0.8793,-0.8793,-0.8794,-0.8794,0,-0.8752,-0.8749,-0.8755,-0.876,-0.8764,-0.8768,-0.8771,-0.8775,-0.8767,-0.8773,-0.8781,-0.8786,-0.8795,-0.8803,-0.8808,-0.8809,-0.8801,-0.8799,-0.8803,-0.8805,-0.8807,-0.8807,-0.8754,-0.8798,-0.8798,-0.8797,-0.8797,-0.8797,-0.8781,-0.8789,-0.879,-0.8797,-0.8798,-0.8801,-0.8808,-0.8806,-0.8813,-0.8819,-0.8814,-0.8824,-0.8826,-0.8833,-0.8835,-0.8844,-0.8837,-0.8842,-0.8843,-0.8845,-0.8847,-0.8806,-0.8845,-0.8845,-0.8844,-0.8844,-0.8844,0,-0.8819,-0.8819,-0.8825,-0.883,-0.8835,-0.8827,-0.883,-0.8835,-0.8844,-0.8846,-0.8852,-0.8862,-0.887,-0.8869,-0.8876,-0.8883,-0.888,-0.8885,-0.8885,-0.8885,-0.8853,-0.8849,-0.8888,-0.8888,-0.8888,-0.8888,-0.8888,-0.8888,-0.884,-0.8853,-0.885,-0.8864,-0.8864,-0.8874,-0.8876,-0.8879,-0.8881,-0.8893,-0.8899,-0.8898,-0.8899,-0.8907,-0.8914,-0.8913,-0.8917,-0.8924,-0.8922,-0.8892,-0.8887,-0.8883,-0.8879,-0.8925,-0.8925,-0.8954,-0.8954,-0.8954]},{"header":{"parameterUnit":"m.s-1","parameterCategory":1,"la1":30.2991,"la2":30.254,"lo1":-89.0895,"lo2":-89.0444,"dy":0.0017,"dx":0.0017,"nx":28,"ny":28,"refTime":"2025-07-26T21:00:00:Z","depth":0,"parameterNumber":3,"parameterNumberName":"V-component_of_WINDS"},"data":[0,0,0,0,0,0,0,0,0,0,0,0,0,0,0,0,0,0,0,0,0,0,0,0,0,0,0,0,0,0,0,0,0,0,0,0,0,0,0,0,0,0,0,0,0,0,0,0,0,0,0,0,0,0,0,0,0,0,3.1056,3.1055,0,3.1025,3.1025,3.1024,3.0992,3.0991,3.0991,3.099,3.0957,3.0956,3.0956,0,0,0,0,0,0,0,0,0,0,0,0,0,3.1084,3.1084,3.1056,3.1055,3.1055,3.1025,3.1025,3.1024,3.0992,3.0991,3.0991,3.099,3.0957,3.0956,3.0956,0,0,0,0,0,0,0,0,0,0,0,0,0,3.1064,3.1084,3.1056,3.1035,3.1033,3.1025,3.1025,3.1024,3.0992,3.0991,3.099,3.099,3.0957,3.0956,3.0956,3.0965,0,0,3.0954,3.0953,0,0,0,0,0,0,0,0,3.1066,3.1063,3.1039,3.1037,3.1034,3.1012,3.1022,3.1004,3.0992,3.1007,3.099,3.0989,3.0975,3.0973,3.0969,3.0964,3.0962,3.0954,3.0953,3.0953,3.0953,0,0,0,0,0,0,0,3.1067,3.1065,3.1044,3.1038,3.1035,3.1027,3.1023,3.1019,3.0996,3.1006,3.1003,3.1,3.0974,3.097,3.0968,3.0962,3.0954,3.0953,3.0953,3.0952,3.0963,3.0964,0,0,0,0,0,0,3.1072,3.1066,3.1044,3.1043,3.1049,3.1027,3.1023,3.1019,3.0996,3.0991,3.1001,3.0999,3.0971,3.0969,3.0967,3.0976,3.0953,3.0952,3.0952,3.0962,3.0963,3.0964,0,0,0,0,0,0,3.1073,3.107,3.1046,3.1054,3.105,3.1027,3.1023,3.1019,3.1015,3.0992,3.0987,3.1001,3.097,3.0967,3.0966,3.0975,3.0952,3.0951,3.0962,3.0963,3.0964,3.0996,0,0,0,0,0,0,3.1073,3.1071,3.1074,3.1054,3.105,3.1046,3.1024,3.1019,3.1014,3.1011,3.0991,3.0986,3.097,3.0967,3.0965,3.0973,3.0951,3.0961,3.0962,3.0963,3.0994,3.0998,3.1001,0,0,0,0,0,3.1075,3.1084,3.1075,3.1072,3.1054,3.1047,3.1044,3.1025,3.1015,3.1018,3.1003,3.0987,3.0974,3.0967,3.0965,3.0973,3.096,3.0962,3.0963,3.0992,3.0997,3.1001,0,0,0,0,0,0,3.1105,3.1081,3.107,3.1074,3.1063,3.1041,3.1045,3.1031,3.1022,3.102,3.0996,3.0992,3.0993,3.0983,3.0976,3.0981,3.0965,3.0966,3.0987,3.0992,3.0995,3.0998,3.095,0,0,0,0,0,3.1113,3.111,3.1088,3.1093,3.1088,3.1068,3.1064,3.1051,3.1038,3.1033,3.1018,3.1006,3.0999,3.0995,3.0987,3.0992,3.0987,3.0996,3.1,3.1003,3.1004,3.1006,3.101,3.0969,3.0969,3.0969,0,0,3.1127,3.1114,3.1113,3.1099,3.1089,3.1086,3.1064,3.1062,3.1059,3.1032,3.103,3.1019,3.1004,3.1006,3.1006,3.0997,3.1014,3.1005,3.1008,3.1007,3.1008,3.1012,3.1015,3.097,3.097,3.097,0,0,3.1153,3.1142,3.1145,3.1136,3.1121,3.1108,3.1108,3.1089,3.1081,3.1079,3.1059,3.1055,3.1044,3.1034,3.1027,3.105,3.1034,3.1048,3.1067,3.1069,3.1072,3.1075,3.1082,3.1085,3.1049,3.1049,3.1049,0,3.1173,3.1168,3.1148,3.1147,3.1142,3.1119,3.1121,3.1113,3.1096,3.1092,3.1083,3.1069,3.1057,3.1056,3.1062,3.1057,3.1057,3.105,3.1073,3.1076,3.1078,3.1085,3.1088,3.1051,3.1051,3.105,3.105,0,3.1193,3.119,3.1194,3.1179,3.1174,3.1175,3.1155,3.1152,3.114,3.1127,3.1125,3.111,3.1099,3.1098,3.1085,3.1095,3.109,3.1078,3.1061,3.1084,3.109,3.1093,3.1053,3.1053,3.1052,3.1052,0,0,3.1236,3.1211,3.1213,3.1206,3.1189,3.1186,3.1185,3.1176,3.1173,3.1163,3.1162,3.1153,3.1141,3.1134,3.112,3.1122,3.114,3.1108,3.1107,3.1114,3.115,3.116,3.1164,3.113,3.113,3.1131,3.1152,0,3.1258,3.1257,3.1239,3.1243,3.124,3.1218,3.1218,3.1207,3.1195,3.119,3.1177,3.1171,3.1156,3.1151,3.1152,3.1138,3.1147,3.1136,3.1128,3.1128,3.1132,3.1167,3.1177,3.1197,3.1154,3.1154,3.1155,0,3.1283,3.1275,3.1278,3.1261,3.1259,3.1259,3.1249,3.1245,3.1232,3.1223,3.1215,3.12,3.1198,3.1182,3.1179,3.1172,3.1168,3.1161,3.1161,3.1159,3.1142,3.1166,3.1203,3.1206,3.1158,3.1158,3.1158,0,3.1314,3.1304,3.1304,3.1299,3.1279,3.128,3.1271,3.1258,3.1253,3.1244,3.124,3.1231,3.1226,3.1219,3.1201,3.1191,3.1199,3.1183,3.1192,3.1192,3.1194,3.1194,3.1231,3.1192,3.1192,3.1192,3.1192,0,3.134,3.1343,3.1318,3.1318,3.1321,3.1301,3.1304,3.1293,3.1282,3.1279,3.126,3.1258,3.1234,3.123,3.1215,3.1215,3.1213,3.1205,3.1201,3.1207,3.1208,3.1203,3.1201,3.1193,3.1192,3.1192,3.1192,0,3.1374,3.1358,3.1357,3.1339,3.1334,3.1337,3.1321,3.132,3.1307,3.1305,3.1303,3.1283,3.1276,3.1258,3.1246,3.1237,3.124,3.1233,3.1245,3.1242,3.1252,3.1251,3.1287,3.1291,3.125,3.1251,3.1251,0,3.1392,3.1394,3.1376,3.1373,3.1366,3.1361,3.1357,3.1338,3.1333,3.1319,3.132,3.1312,3.1305,3.1295,3.1279,3.1271,3.1263,3.1276,3.1261,3.1267,3.1263,3.1263,3.1263,3.1279,3.128,3.128,3.1281,0,3.1425,3.1417,3.1411,3.1403,3.1398,3.139,3.1381,3.138,3.1359,3.1355,3.1349,3.1343,3.1332,3.1324,3.1313,3.1303,3.1288,3.1286,3.1287,3.1292,3.1299,3.1295,3.1253,3.1285,3.1284,3.1284,3.1284,3.1284,3.1451,3.1452,3.1439,3.1433,3.1425,3.1417,3.1416,3.1404,3.1398,3.1388,3.1377,3.1372,3.1359,3.1342,3.1334,3.1329,3.1321,3.1324,3.1324,3.1325,3.1327,3.13,3.1327,3.1327,3.1327,3.1327,3.1327,0,3.1482,3.1474,3.1469,3.1457,3.1453,3.144,3.143,3.1427,3.1423,3.1413,3.1406,3.1399,3.1391,3.1375,3.1366,3.1365,3.1358,3.1364,3.1363,3.1361,3.1335,3.1335,3.137,3.137,3.137,3.137,3.137,3.137,3.1498,3.1499,3.1489,3.1486,3.1476,3.1472,3.1467,3.146,3.1451,3.1444,3.1438,3.1428,3.1415,3.1405,3.1398,3.1393,3.1391,3.1398,3.1392,3.1367,3.1363,3.1359,3.1359,3.1398,3.1398,3.1418,3.1418,3.1418]}]]